FW5428 Weather Reports


Display with metric or nautical units.
time (UTC)temp
F
wind
direction
speed
MPH
gust
MPH
rain 1hr
in
rain 24hr
in
rain mn
in
humidity
%
barometer
mb
20260508235737 47 315 4.0 9.0 0.00 0.00 0.00 66 1008.3
20260508235227 47 0 3.0 10.0 0.00 0.00 0.00 65 1008.4
20260508234717 47 315 4.0 11.0 0.00 0.00 0.00 64 1008.1
20260508234207 48 315 7.0 11.0 0.00 0.00 0.00 63 1007.9
20260508233656 48 315 4.0 10.0 0.00 0.00 0.00 63 1008.0
20260508233156 48 315 4.0 13.0 0.00 0.00 0.00 63 1008.1
20260508232637 48 0 6.0 13.0 0.00 0.00 0.00 62 1008.0
20260508232127 48 270 6.0 11.0 0.00 0.00 0.00 62 1007.9
20260508231106 48 270 6.0 11.0 0.00 0.00 0.00 62 1007.9
20260508230046 49 270 4.0 10.0 0.00 0.00 0.00 63 1007.8
20260508225535 49 0 4.0 11.0 0.00 0.00 0.00 63 1007.5
20260508225026 49 315 5.0 11.0 0.00 0.00 0.00 63 1007.4
20260508224515 49 270 5.0 11.0 0.00 0.00 0.00 63 1007.4
20260508224005 49 315 4.0 11.0 0.00 0.00 0.00 63 1007.2
20260508223455 49 315 4.0 11.0 0.00 0.00 0.00 63 1006.9
20260508222436 49 0 2.0 11.0 0.00 0.00 0.00 64 1007.0
20260508221925 49 225 7.0 11.0 0.00 0.00 0.00 63 1007.1
20260508220906 49 270 6.0 12.0 0.00 0.00 0.00 64 1006.9
20260508220355 50 0 5.0 12.0 0.00 0.00 0.00 63 1006.7
20260508214824 51 270 4.0 15.0 0.00 0.00 0.00 61 1006.2
20260508214314 51 270 3.0 15.0 0.00 0.00 0.00 62 1006.3
20260508213254 51 270 5.0 11.0 0.00 0.00 0.00 61 1006.2
20260508212744 51 270 7.0 11.0 0.00 0.00 0.00 61 1006.1
20260508212234 52 270 3.0 13.0 0.00 0.00 0.00 61 1006.1
20260508211724 52 270 4.0 14.0 0.00 0.00 0.00 61 1006.0
20260508211214 53 270 8.0 14.0 0.00 0.00 0.00 59 1006.1
20260508210703 53 315 6.0 13.0 0.00 0.00 0.00 58 1005.7
20260508204622 55 270 11.0 23.0 0.00 0.00 0.00 54 1005.8
20260508204116 55 270 7.0 25.0 0.00 0.00 0.00 53 1006.0
20260508203603 55 270 9.0 25.0 0.00 0.00 0.00 53 1005.7
20260508203052 55 270 11.0 21.0 0.00 0.00 0.00 53 1005.7
20260508202032 55 270 11.0 27.0 0.00 0.00 0.00 53 1005.7
20260508201524 55 270 11.0 28.0 0.00 0.00 0.00 53 1005.5
20260508201012 55 270 20.0 28.0 0.00 0.00 0.00 50 1005.6
20260508200503 56 270 11.0 26.0 0.00 0.00 0.00 52 1005.7
20260508195952 56 270 12.0 26.0 0.00 0.00 0.00 53 1005.6
20260508195442 56 270 9.0 24.0 0.00 0.00 0.00 54 1005.7
20260508194932 56 270 11.0 28.0 0.00 0.00 0.00 54 1005.5
20260508194421 56 270 16.0 28.0 0.00 0.00 0.00 53 1005.4
20260508193911 56 270 11.0 27.0 0.00 0.00 0.00 53 1005.4
20260508193401 56 270 11.0 34.0 0.00 0.00 0.00 55 1005.5
20260508192852 56 270 20.0 34.0 0.00 0.00 0.00 53 1005.5
20260508192342 56 270 22.0 34.0 0.00 0.00 0.00 56 1005.4
20260508191831 56 270 14.0 28.0 0.00 0.00 0.00 53 1005.4
20260508191321 56 225 18.0 28.0 0.00 0.00 0.00 54 1005.4
20260508190810 56 225 17.0 28.0 0.00 0.00 0.00 54 1005.4
20260508190300 56 270 13.0 28.0 0.00 0.00 0.00 54 1005.3
20260508185751 56 270 18.0 30.0 0.00 0.00 0.00 54 1005.4
20260508185241 56 270 14.0 34.0 0.00 0.00 0.00 54 1005.4
20260508184730 56 270 14.0 34.0 0.00 0.00 0.00 53 1005.4
20260508184220 56 270 23.0 36.0 0.00 0.00 0.00 52 1005.4
20260508183710 56 270 18.0 36.0 0.00 0.00 0.00 54 1005.2
20260508183201 56 270 17.0 26.0 0.00 0.00 0.00 56 1005.2
20260508182650 56 270 15.0 26.0 0.00 0.00 0.00 54 1005.0
20260508182139 56 270 11.0 31.0 0.00 0.00 0.00 54 1005.2
20260508181630 56 270 20.0 31.0 0.00 0.00 0.00 55 1005.1
20260508181119 56 270 19.0 34.0 0.00 0.00 0.00 54 1004.8
20260508180059 56 270 20.0 34.0 0.00 0.00 0.00 53 1005.0
20260508175549 56 270 19.0 34.0 0.00 0.00 0.00 56 1005.0
20260508175039 56 270 21.0 32.0 0.00 0.00 0.00 56 1004.9
20260508174529 56 270 16.0 34.0 0.00 0.00 0.00 58 1004.9
20260508174018 56 270 18.0 34.0 0.00 0.00 0.00 58 1005.0
20260508172959 56 270 17.0 31.0 0.00 0.00 0.00 58 1004.8
20260508172448 55 270 19.0 38.0 0.00 0.00 0.00 60 1005.1
20260508171939 55 270 19.0 38.0 0.00 0.00 0.00 57 1005.3
20260508171429 55 270 11.0 34.0 0.00 0.00 0.00 60 1005.1
20260508170918 55 270 15.0 31.0 0.00 0.00 0.00 60 1005.0
20260508170408 55 270 15.0 32.0 0.00 0.00 0.00 61 1005.1
20260508165858 54 315 15.0 43.0 0.00 0.00 0.00 60 1005.5
20260508165348 54 315 17.0 43.0 0.00 0.00 0.00 61 1005.3
20260508164838 54 270 15.0 30.0 0.00 0.00 0.00 62 1005.5
20260508164328 54 270 17.0 30.0 0.00 0.00 0.00 63 1005.5
20260508163818 54 270 13.0 31.0 0.00 0.00 0.00 64 1005.6
20260508163308 54 270 20.0 31.0 0.00 0.00 0.00 61 1005.8
20260508162757 54 270 16.0 33.0 0.00 0.00 0.00 62 1005.4
20260508162247 53 0 11.0 33.0 0.00 0.00 0.00 63 1005.6
20260508161737 53 270 23.0 33.0 0.00 0.00 0.00 63 1005.8
20260508161227 53 270 13.0 32.0 0.00 0.00 0.00 65 1005.5
20260508160717 53 270 16.0 28.0 0.00 0.00 0.00 65 1005.8
20260508160207 53 270 20.0 28.0 0.00 0.00 0.00 65 1005.8
20260508155656 53 270 15.0 32.0 0.00 0.00 0.00 64 1005.8
20260508154636 53 270 15.0 29.0 0.00 0.00 0.00 65 1005.7
20260508154127 53 270 17.0 29.0 0.00 0.00 0.00 65 1005.8
20260508153616 53 270 12.0 30.0 0.00 0.00 0.00 65 1006.0
20260508152045 53 270 18.0 30.0 0.00 0.00 0.00 66 1006.2
20260508151536 53 270 13.0 32.0 0.00 0.00 0.00 66 1006.0
20260508151026 53 270 22.0 32.0 0.00 0.00 0.00 65 1005.9
20260508150515 53 270 11.0 30.0 0.00 0.00 0.00 66 1005.7
20260508150006 53 270 16.0 30.0 0.00 0.00 0.00 65 1005.9
20260508145456 53 0 11.0 26.0 0.00 0.00 0.00 67 1005.9
20260508144956 52 270 12.0 28.0 0.00 0.00 0.00 67 1005.8
20260508144435 52 270 15.0 28.0 0.00 0.00 0.00 67 1005.9
20260508143925 52 270 14.0 30.0 0.00 0.00 0.00 67 1005.8
20260508143414 52 270 15.0 30.0 0.00 0.00 0.00 69 1005.8
20260508142905 52 270 17.0 27.0 0.00 0.00 0.00 68 1006.2
20260508142354 51 270 17.0 27.0 0.00 0.00 0.00 67 1005.9
20260508141844 51 270 19.0 27.0 0.00 0.00 0.00 71 1005.9
20260508141334 51 270 17.0 30.0 0.00 0.00 0.00 69 1005.9
20260508135254 50 315 16.0 31.0 0.00 0.00 0.00 68 1006.1
20260508134743 50 270 21.0 30.0 0.00 0.00 0.00 69 1006.0
20260508134234 50 270 16.0 30.0 0.00 0.00 0.00 70 1005.8
20260508133723 50 270 16.0 28.0 0.00 0.00 0.00 71 1006.0
20260508133214 50 270 17.0 29.0 0.00 0.00 0.00 69 1006.0
20260508132153 49 270 18.0 31.0 0.00 0.00 0.00 71 1005.9
20260508131643 49 270 15.0 31.0 0.00 0.00 0.00 69 1005.8
20260508131133 49 270 17.0 31.0 0.00 0.00 0.00 71 1006.1
20260508130623 49 270 16.0 31.0 0.00 0.00 0.00 73 1005.9
20260508130113 49 225 17.0 26.0 0.00 0.00 0.00 73 1005.9
20260508125053 49 225 15.0 28.0 0.00 0.00 0.00 72 1006.0
20260508124543 48 270 17.0 25.0 0.00 0.00 0.00 71 1005.9
20260508124033 48 270 14.0 24.0 0.00 0.00 0.00 71 1005.9
20260508123527 47 270 12.0 21.0 0.00 0.00 0.00 71 1005.9
20260508123013 47 270 7.0 23.0 0.00 0.00 0.00 71 1005.9
20260508121442 47 270 11.0 24.0 0.00 0.00 0.00 70 1005.7
20260508120931 47 270 12.0 28.0 0.00 0.00 0.00 70 1005.8
20260508120422 47 270 15.0 28.0 0.00 0.00 0.00 70 1005.7
20260508115918 46 270 15.0 24.0 0.00 0.00 0.00 70 1005.7
20260508114851 46 270 8.0 23.0 0.00 0.00 0.00 71 1005.5
20260508114341 46 270 17.0 28.0 0.00 0.00 0.00 70 1005.2
20260508113831 46 270 11.0 28.0 0.00 0.00 0.00 71 1005.1
20260508112811 45 315 11.0 24.0 0.00 0.00 0.00 71 1005.1
20260508112301 45 270 10.0 20.0 0.00 0.00 0.00 72 1004.9
20260508111751 45 270 8.0 20.0 0.00 0.00 0.00 71 1004.8
20260508111240 45 270 6.0 20.0 0.00 0.00 0.00 71 1004.9
20260508110730 45 270 11.0 28.0 0.00 0.00 0.00 71 1004.9
20260508110220 45 270 12.0 28.0 0.00 0.00 0.00 71 1004.5
20260508105711 45 270 13.0 21.0 0.00 0.00 0.00 71 1004.7
20260508105201 45 270 8.0 23.0 0.00 0.00 0.00 72 1004.5
20260508104140 45 270 7.0 21.0 0.00 0.00 0.00 72 1004.2
20260508103120 45 270 11.0 24.0 0.00 0.00 0.00 72 1004.0
20260508102609 45 270 15.0 24.0 0.00 0.00 0.00 71 1004.1
20260508102059 45 270 10.0 20.0 0.00 0.00 0.00 72 1004.0
20260508101549 46 270 11.0 20.0 0.00 0.00 0.00 72 1003.9
20260508101039 46 270 12.0 24.0 0.00 0.00 0.00 72 1003.6
20260508100531 46 0 11.0 26.0 0.00 0.00 0.00 72 1003.6
20260508100020 46 270 19.0 26.0 0.00 0.00 0.00 71 1003.6
20260508095508 46 270 14.0 25.0 0.00 0.00 0.00 72 1003.3
20260508095000 46 0 12.0 25.0 0.00 0.00 0.00 72 1003.5
20260508094446 46 270 17.0 29.0 0.00 0.00 0.00 72 1003.0
20260508093938 46 270 10.0 29.0 0.00 0.00 0.00 73 1003.1
20260508092918 47 270 13.0 26.0 0.00 0.00 0.00 73 1003.1
20260508091858 47 270 9.0 20.0 0.00 0.00 0.00 74 1002.9
20260508091348 47 270 13.0 23.0 0.00 0.00 0.00 75 1002.9
20260508090841 47 270 8.0 23.0 0.00 0.00 0.00 76 1003.1
20260508090327 47 270 15.0 25.0 0.00 0.00 0.00 75 1002.9
20260508085818 47 270 16.0 25.0 0.00 0.00 0.00 76 1002.9
20260508085308 47 270 12.0 23.0 0.00 0.00 0.00 77 1002.9
20260508084758 47 270 10.0 24.0 0.00 0.00 0.00 78 1002.8
20260508084247 48 270 10.0 24.0 0.00 0.00 0.00 79 1002.8
20260508083227 48 315 10.0 25.0 0.00 0.00 0.00 80 1002.7
20260508082717 48 270 17.0 25.0 0.00 0.00 0.00 81 1002.8
20260508081657 48 0 11.0 26.0 0.00 0.00 0.00 82 1002.8
20260508081147 49 270 11.0 27.0 0.00 0.00 0.00 82 1002.7
20260508080636 49 270 16.0 34.0 0.00 0.00 0.00 82 1002.7
20260508080126 49 270 10.0 34.0 0.00 0.00 0.00 82 1003.0
20260508074556 50 270 6.0 27.0 0.00 0.00 0.00 82 1002.9
20260508074046 49 270 11.0 23.0 0.00 0.00 0.00 81 1002.7
20260508073536 49 0 13.0 23.0 0.00 0.00 0.00 81 1003.0
20260508071455 49 270 10.0 21.0 0.00 0.00 0.00 82 1003.0
20260508070945 49 270 10.0 22.0 0.00 0.00 0.00 82 1002.8
20260508070435 49 270 10.0 22.0 0.00 0.00 0.00 82 1002.9
20260508065925 49 270 11.0 21.0 0.00 0.00 0.00 82 1002.8
20260508065415 49 270 14.0 22.0 0.00 0.00 0.00 81 1002.9
20260508064355 49 270 11.0 24.0 0.00 0.00 0.00 80 1003.0
20260508063845 49 270 17.0 24.0 0.00 0.00 0.00 80 1003.2
20260508063335 50 270 9.0 19.0 0.00 0.00 0.00 79 1003.2
20260508062824 50 270 11.0 22.0 0.00 0.00 0.00 78 1003.0
20260508062314 50 270 10.0 22.0 0.00 0.00 0.00 77 1003.2
20260508061804 51 225 8.0 22.0 0.00 0.00 0.00 77 1002.9
20260508060744 51 270 15.0 0.0 0.00 0.00 0.00 76 1003.1
20260508060151 51 270 16.0 0.0 0.00 0.00 0.00 77 1003.3
20260508055956 51 270 19.0 27.0 0.00 0.89 0.00 76 1003.5
20260508055446 52 270 16.0 30.0 0.00 0.89 0.00 77 1003.2
20260508054936 52 270 19.0 30.0 0.89 0.89 0.00 76 1003.2
20260508054426 52 270 16.0 31.0 0.89 0.89 0.00 77 1003.4
20260508053916 52 270 13.0 31.0 0.89 0.89 0.00 77 1003.5
20260508053406 52 270 17.0 30.0 0.89 0.89 0.00 77 1003.3
20260508052856 52 270 16.0 34.0 0.89 0.89 0.00 78 1003.5
20260508052345 52 270 23.0 34.0 0.89 0.89 0.00 78 1003.3
20260508051835 52 225 24.0 34.0 0.89 0.89 0.00 77 1003.4
20260508050814 52 225 21.0 42.0 0.89 0.89 0.00 78 1003.5
20260508050306 52 270 23.0 42.0 0.89 0.89 0.00 78 1003.1
20260508045244 52 225 19.0 40.0 0.89 0.89 0.00 78 1002.9
20260508044734 52 270 23.0 35.0 0.00 0.00 0.00 77 1003.0
20260508044224 52 270 20.0 34.0 0.00 0.00 0.00 79 1003.1
20260508043714 52 270 18.0 31.0 0.00 0.00 0.00 79 1003.0
20260508043204 52 270 21.0 39.0 0.00 0.00 0.00 80 1003.3
20260508042654 52 270 22.0 39.0 0.00 0.00 0.00 80 1003.3
20260508042145 52 270 14.0 34.0 0.00 0.00 0.00 80 1003.4
20260508041634 52 270 23.0 34.0 0.00 0.00 0.00 81 1003.1
20260508041123 52 270 20.0 34.0 0.00 0.00 0.00 81 1003.4
20260508040117 52 270 17.0 23.0 0.00 0.00 0.00 84 1003.4
20260508032341 53 270 17.0 34.0 0.00 0.00 0.00 82 1002.8
20260508031831 53 270 21.0 34.0 0.00 0.00 0.00 82 1002.7
20260508031322 53 270 16.0 34.0 0.00 0.00 0.00 83 1002.6
20260508030811 53 270 21.0 34.0 0.00 0.00 0.00 82 1002.9
20260508030302 54 270 22.0 40.0 0.00 0.00 0.00 82 1002.6
20260508025751 54 270 25.0 40.0 0.00 0.00 0.37 82 1002.6
20260508025241 54 270 20.0 40.0 0.00 0.00 0.37 82 1002.6
20260508024221 54 270 24.0 42.0 0.00 0.00 0.37 81 1002.6
20260508023201 55 270 9.0 0.0 0.00 0.00 0.37 81 1002.3
20260508022135 55 270 10.0 23.0 0.00 0.22 0.37 81 1002.2
20260508021624 55 270 5.0 23.0 0.00 0.22 0.37 81 1002.1
20260508020605 55 270 14.0 28.0 0.00 0.22 0.37 80 1002.1
20260508015544 55 270 21.0 27.0 0.00 0.22 0.37 80 1002.1
20260508015034 55 270 15.0 27.0 0.00 0.22 0.37 80 1002.3
20260508014524 55 270 15.0 27.0 0.00 0.22 0.37 81 1002.0
20260508014014 55 270 14.0 24.0 0.00 0.22 0.37 81 1002.2
20260508013504 55 270 13.0 23.0 0.00 0.22 0.37 82 1002.2
20260508012954 55 225 16.0 30.0 0.00 0.22 0.37 82 1002.2
20260508012443 55 270 20.0 30.0 0.00 0.22 0.37 81 1002.2
20260508011934 55 225 20.0 27.0 0.00 0.22 0.37 81 1002.4
20260508011423 55 270 18.0 27.0 0.00 0.22 0.37 82 1002.5
20260508010914 55 270 18.0 26.0 0.00 0.22 0.37 82 1002.3
20260508010403 55 270 12.0 24.0 0.00 0.22 0.37 83 1002.5
20260508005853 55 270 17.0 23.0 0.00 0.22 0.37 83 1002.8
20260508005342 55 270 15.0 23.0 0.00 0.22 0.37 84 1002.7
20260508004833 55 270 15.0 23.0 0.00 0.22 0.37 84 1003.1
20260508003812 55 270 15.0 28.0 0.00 0.22 0.37 85 1002.7
20260508002752 56 270 19.0 30.0 0.00 0.22 0.37 83 1002.3
20260508002243 56 270 18.0 30.0 0.00 0.22 0.37 83 1002.2
20260508001732 56 270 18.0 29.0 0.00 0.22 0.37 82 1002.6
20260508001222 56 225 11.0 22.0 0.00 0.22 0.37 81 1002.7
20260508000712 56 270 8.0 17.0 0.00 0.22 0.37 81 1002.5
20260508000204 56 270 10.0 21.0 0.00 0.22 0.37 81 1002.7